Location: Nijmegen RU
(51.8233°N, 354.1314°E)
Time: 16:17:53
(UTC+01:00)

OTV 5 (USA 277) - Visible Passes

Search period start: 22 February 2019 00:00
Search period end: 04 March 2019 00:00
Orbit: 342 x 346 km, 54.5° (Epoch: 17 February)

Date Brightness Start Highest point End Pass type
(mag) Time Alt. Az. Time Alt. Az. Time Alt. Az.
24 Feb ? 20:01:42 10° SE 20:01:57 10° SE 20:01:57 10° SE visible
25 Feb ? 20:23:04 10° SSW 20:25:20 23° SSE 20:25:20 23° SSE visible
26 Feb ? 20:46:07 10° SW 20:48:36 48° S 20:48:36 48° S visible
27 Feb ? 19:35:33 10° SSW 19:37:55 23° SE 19:40:17 10° E visible
27 Feb ? 21:09:41 10° WSW 21:11:46 43° W 21:11:46 43° W visible
28 Feb ? 19:58:34 10° SW 20:01:23 51° SSE 20:03:23 17° ENE visible
28 Feb ? 21:33:28 10° W 21:34:50 24° WNW 21:34:50 24° WNW visible
01 Mar ? 20:22:07 10° WSW 20:25:01 80° NNW 20:26:23 28° ENE visible
01 Mar ? 21:57:18 10° WNW 21:57:49 14° WNW 21:57:49 14° WNW visible
02 Mar ? 20:45:54 10° W 20:48:45 52° N 20:49:20 43° NE visible
03 Mar ? 21:09:43 10° WNW 21:12:14 43° NNW 21:12:14 43° NNW visible
